sat.trackr.live / text

‹ back to catalog

STARLINK-37629

NORAD 69443 · 2026-127A

PAYLOAD ACTIVE UNKNOWN

§ Identity

Operator
Country
US
Launch date
2026-06-08
Launch site
AFETR
Launch vehicle
Mass (kg)
RCS (m²)

Purposes: comms

External: N2YO · Heavens-Above · Gunter

§ Orbital elements

Epoch: 2026-09-20T02:55:24.472992Z

Period
93.85 min
Inclination
53.1574°
Eccentricity
0.0001386
Mean motion
15.34396824 rev/d
Perigee alt
461.8 km
Apogee alt
463.7 km
Semi-major
6,840.8 km
B*
4.2965e-4
RAAN
167.5163°
Arg perigee
93.0046°
Mean anomaly
267.1116°
Rev number
1,613

§ Raw data

STARLINK-376291 69443U 26127A   26263.12181103  .00014166  00000+0  42965-3 0  99962 69443  53.1574 167.5163 0001386  93.0046 267.1116 15.34396824 16132

JSON: /api/v1/satellites/69443 · /tle

For live sub-satellite position, see the globe view (requires WebGL).

§ Visibility from observer

Set your observer location to see the next 7 days of passes ≥ 10°. The values pass through the URL so the page stays shareable.

No JS? Fill the form by hand. The geolocation button needs JavaScript.